LNNPO ENKJ-ENEG

Flight info

Callsign LNNPO
Flight time 0h 18m
Altitude 4000
Route ENKJ/ENSI NANNESTAD
Aircraft C172/L-SFG/C

Departure

Time 2026-05-06 17:25
Airport Lillestrøm Airfield, Kjeller (ENKJ)

Arrival

Time 2026-05-06 17:43
Airport Hønefoss Airfield, Eggemoen (ENEG)
Time Latitude Longitude Altitude Speed Heading
2026-05-06 17:24 60.22844 11.05154 1445 ft 109 kts 13°
2026-05-06 17:25 60.23551 11.05642 1383 ft 104 kts 16°
2026-05-06 17:25 60.24097 11.06494 1372 ft 101 kts 58°
2026-05-06 17:25 60.24184 11.07867 1328 ft 103 kts 107°
2026-05-06 17:25 60.23842 11.08951 1241 ft 87 kts 144°
2026-05-06 17:26 60.23359 11.09484 1150 ft 73 kts 166°
2026-05-06 17:26 60.22876 11.09638 1012 ft 70 kts 181°
2026-05-06 17:26 60.22388 11.09565 903 ft 70 kts 193°
2026-05-06 17:26 60.21907 11.09329 800 ft 73 kts 198°
2026-05-06 17:27 60.21439 11.09054 702 ft 67 kts 195°
2026-05-06 17:27 60.21025 11.08817 683 ft 57 kts 195°
2026-05-06 17:27 60.20551 11.08545 731 ft 79 kts 197°
2026-05-06 17:27 60.19998 11.08237 837 ft 89 kts 196°
2026-05-06 17:28 60.19387 11.07872 975 ft 95 kts 195°
2026-05-06 17:28 60.18750 11.07528 1116 ft 95 kts 199°
2026-05-06 17:28 60.18132 11.07102 1253 ft 95 kts 208°
2026-05-06 17:28 60.17650 11.06262 1427 ft 89 kts 238°
2026-05-06 17:29 60.17542 11.05015 1503 ft 95 kts 269°
2026-05-06 17:29 60.17626 11.03706 1629 ft 94 kts 276°
2026-05-06 17:29 60.17776 11.02407 1732 ft 96 kts 281°
2026-05-06 17:29 60.17965 11.01117 1849 ft 95 kts 285°
2026-05-06 17:30 60.18250 10.99891 1933 ft 97 kts 291°
2026-05-06 17:30 60.18559 10.98650 1991 ft 100 kts 291°
2026-05-06 17:30 60.18874 10.97424 2085 ft 99 kts 291°
2026-05-06 17:30 60.19134 10.96145 2131 ft 101 kts 285°
2026-05-06 17:31 60.19373 10.94810 2208 ft 100 kts 285°
2026-05-06 17:31 60.19592 10.93503 2276 ft 99 kts 283°
2026-05-06 17:31 60.19791 10.92149 2313 ft 102 kts 281°
2026-05-06 17:31 60.19998 10.90779 2357 ft 104 kts 284°
2026-05-06 17:32 60.20227 10.89385 2391 ft 105 kts 285°
2026-05-06 17:32 60.20455 10.88014 2420 ft 102 kts 284°
2026-05-06 17:32 60.20671 10.86620 2423 ft 104 kts 285°
2026-05-06 17:32 60.20952 10.85284 2457 ft 104 kts 295°
2026-05-06 17:33 60.21355 10.84048 2450 ft 106 kts 299°
2026-05-06 17:33 60.21760 10.82803 2451 ft 106 kts 299°
2026-05-06 17:33 60.22152 10.81570 2466 ft 105 kts 298°
2026-05-06 17:33 60.22533 10.80330 2452 ft 105 kts 296°
2026-05-06 17:34 60.22921 10.79058 2450 ft 107 kts 299°
2026-05-06 17:34 60.23273 10.77746 2469 ft 105 kts 290°
2026-05-06 17:34 60.23540 10.76379 2488 ft 104 kts 287°
2026-05-06 17:34 60.23763 10.75009 2495 ft 104 kts 284°
2026-05-06 17:35 60.23947 10.73589 2469 ft 106 kts 279°
2026-05-06 17:35 60.24106 10.72147 2468 ft 104 kts 281°
2026-05-06 17:35 60.24282 10.70731 2518 ft 103 kts 282°
2026-05-06 17:36 60.24643 10.67896 2465 ft 107 kts 281°
2026-05-06 17:36 60.24773 10.66442 2464 ft 105 kts 278°
2026-05-06 17:36 60.24872 10.64970 2443 ft 106 kts 276°
2026-05-06 17:36 60.24924 10.63497 2423 ft 105 kts 274°
2026-05-06 17:37 60.24957 10.62032 2422 ft 103 kts 270°
2026-05-06 17:37 60.24947 10.60576 2418 ft 104 kts 268°
2026-05-06 17:37 60.24907 10.59133 2440 ft 102 kts 266°
2026-05-06 17:37 60.24878 10.57701 2441 ft 102 kts 268°
2026-05-06 17:38 60.24892 10.56261 2425 ft 103 kts 271°
2026-05-06 17:38 60.24867 10.54822 2431 ft 103 kts 266°
2026-05-06 17:38 60.24921 10.53382 2407 ft 103 kts 279°
2026-05-06 17:38 60.25121 10.51960 2353 ft 107 kts 285°
2026-05-06 17:39 60.25320 10.50486 2253 ft 109 kts 282°
2026-05-06 17:39 60.25529 10.49000 2095 ft 111 kts 284°
2026-05-06 17:39 60.25680 10.47480 1963 ft 110 kts 276°
2026-05-06 17:39 60.25691 10.45922 1824 ft 112 kts 267°
2026-05-06 17:40 60.25578 10.44386 1721 ft 111 kts 260°
2026-05-06 17:40 60.25371 10.42907 1621 ft 110 kts 251°
2026-05-06 17:40 60.25097 10.41465 1469 ft 108 kts 251°
2026-05-06 17:40 60.24831 10.40074 1357 ft 106 kts 250°
2026-05-06 17:41 60.24544 10.38705 1253 ft 106 kts 249°
2026-05-06 17:41 60.24248 10.37381 1187 ft 103 kts 249°
2026-05-06 17:41 60.23905 10.36127 1171 ft 100 kts 236°
2026-05-06 17:41 60.23383 10.35258 1146 ft 97 kts 225°
2026-05-06 17:42 60.22918 10.34395 1049 ft 87 kts 223°
2026-05-06 17:42 60.22476 10.33640 990 ft 74 kts 227°
2026-05-06 17:42 60.22119 10.33006 760 ft 68 kts 227°
2026-05-06 17:42 60.21790 10.32438 711 ft 59 kts 227°
2026-05-06 17:43 60.21495 10.31918 678 ft 48 kts 222°
2026-05-06 17:43 60.21328 10.31631 674 ft 16 kts 219°
2026-05-06 17:43 60.21215 10.31444 670 ft 23 kts 219°
2026-05-06 17:43 60.21144 10.31519 671 ft 9 kts 130°
2026-05-06 17:44 60.21128 10.31578 672 ft 0 kts 86°
2026-05-06 17:54 60.21124 10.31576 672 ft 3 kts 243°
2026-05-06 17:54 60.21148 10.31503 671 ft 9 kts 306°
2026-05-06 17:54 60.21200 10.31426 670 ft 8 kts 32°
2026-05-06 17:55 60.21325 10.31653 674 ft 33 kts 46°
2026-05-06 17:55 60.21355 10.31659 674 ft 22 kts 220°
2026-05-06 17:55 60.21083 10.31198 678 ft 72 kts 223°
2026-05-06 17:55 60.20654 10.30532 826 ft 84 kts 219°
2026-05-06 17:56 60.20158 10.29871 1014 ft 87 kts 205°
2026-05-06 17:56 60.19558 10.29924 1234 ft 91 kts 153°
2026-05-06 17:56 60.19073 10.30748 1448 ft 92 kts 131°
2026-05-06 17:56 60.18666 10.31755 1681 ft 93 kts 127°
2026-05-06 17:57 60.18288 10.32810 1884 ft 95 kts 124°
2026-05-06 17:57 60.17923 10.33916 2104 ft 95 kts 123°
2026-05-06 17:57 60.17564 10.35050 2319 ft 96 kts 123°
2026-05-06 17:57 60.17205 10.36218 2475 ft 105 kts 123°
2026-05-06 17:58 60.16788 10.37576 2488 ft 121 kts 123°
2026-05-06 17:58 60.16334 10.39062 2482 ft 128 kts 123°
2026-05-06 17:58 60.15874 10.40586 2462 ft 126 kts 122°
2026-05-06 17:58 60.15429 10.42075 2472 ft 124 kts 122°
2026-05-06 17:59 60.14990 10.43562 2448 ft 123 kts 121°
2026-05-06 17:59 60.14552 10.45043 2446 ft 122 kts 121°
2026-05-06 17:59 60.14125 10.46489 2450 ft 121 kts 120°
2026-05-06 17:59 60.13694 10.47949 2448 ft 123 kts 122°
2026-05-06 18:00 60.13254 10.49442 2440 ft 123 kts 122°
2026-05-06 18:00 60.12824 10.50898 2456 ft 122 kts 122°
2026-05-06 18:00 60.12393 10.52361 2436 ft 122 kts 123°
2026-05-06 18:00 60.11964 10.53806 2446 ft 119 kts 123°
2026-05-06 18:01 60.11538 10.55241 2462 ft 120 kts 123°
2026-05-06 18:01 60.11114 10.56665 2469 ft 120 kts 123°
2026-05-06 18:01 60.10677 10.58140 2462 ft 121 kts 123°
2026-05-06 18:01 60.10250 10.59582 2457 ft 122 kts 123°
2026-05-06 18:02 60.09813 10.61049 2467 ft 121 kts 123°
2026-05-06 18:02 60.09387 10.62486 2484 ft 121 kts 124°
2026-05-06 18:02 60.08950 10.63949 2464 ft 120 kts 124°
2026-05-06 18:02 60.08524 10.65385 2444 ft 117 kts 125°
2026-05-06 18:03 60.08114 10.66771 2465 ft 115 kts 126°
2026-05-06 18:03 60.07702 10.68152 2491 ft 115 kts 127°
2026-05-06 18:03 60.07288 10.69537 2467 ft 117 kts 126°
2026-05-06 18:03 60.06868 10.70942 2457 ft 118 kts 126°
2026-05-06 18:04 60.06445 10.72356 2496 ft 118 kts 126°
2026-05-06 18:04 60.06018 10.73777 2496 ft 120 kts 125°
2026-05-06 18:04 60.05581 10.75245 2500 ft 122 kts 126°
2026-05-06 18:04 60.05144 10.76711 2481 ft 122 kts 127°
2026-05-06 18:05 60.04709 10.78157 2482 ft 121 kts 126°
2026-05-06 18:05 60.04276 10.79605 2458 ft 122 kts 126°
2026-05-06 18:05 60.03849 10.81036 2467 ft 119 kts 127°
2026-05-06 18:05 60.03423 10.82455 2480 ft 118 kts 127°
2026-05-06 18:06 60.03002 10.83863 2469 ft 117 kts 126°
2026-05-06 18:06 60.02586 10.85246 2478 ft 117 kts 126°
2026-05-06 18:06 60.02161 10.86654 2466 ft 118 kts 124°
2026-05-06 18:06 60.01741 10.88052 2439 ft 119 kts 125°
2026-05-06 18:07 60.01349 10.89535 2458 ft 118 kts 121°
2026-05-06 18:07 60.00995 10.91063 2235 ft 131 kts 117°
2026-05-06 18:07 60.00610 10.92731 2000 ft 130 kts 118°
2026-05-06 18:07 60.00122 10.94270 1747 ft 133 kts 128°
2026-05-06 18:08 59.99569 10.95673 1500 ft 125 kts 128°
2026-05-06 18:08 59.99129 10.97036 1318 ft 107 kts 124°
2026-05-06 18:08 59.98773 10.98251 1117 ft 95 kts 121°
2026-05-06 18:08 59.98440 10.99333 935 ft 88 kts 129°
2026-05-06 18:09 59.98101 11.00293 805 ft 85 kts 120°
2026-05-06 18:09 59.97823 11.01223 742 ft 66 kts 122°
2026-05-06 18:09 59.97557 11.02009 638 ft 70 kts 121°
2026-05-06 18:09 59.97298 11.02847 459 ft 72 kts 144°
2026-05-06 18:10 59.97039 11.03646 354 ft 59 kts 124°
2026-05-06 18:10 59.96768 11.04498 365 ft 88 kts 122°
2026-05-06 18:10 59.96476 11.05437 690 ft 74 kts 120°
2026-05-06 18:10 59.96240 11.06375 898 ft 77 kts 115°
2026-05-06 18:11 59.96162 11.07449 1051 ft 86 kts 54°
2026-05-06 18:11 59.96618 11.08306 1159 ft 95 kts 29°
2026-05-06 18:11 59.97243 11.08441 1266 ft 97 kts 325°
2026-05-06 18:11 59.97672 11.07387 1338 ft 96 kts 300°
2026-05-06 18:12 59.98016 11.06232 1301 ft 103 kts 294°
2026-05-06 18:12 59.98354 11.04962 1354 ft 99 kts 295°
2026-05-06 18:12 59.98654 11.03711 1416 ft 100 kts 290°
2026-05-06 18:12 59.98877 11.02429 1474 ft 97 kts 280°
2026-05-06 18:13 59.98760 11.01138 1531 ft 95 kts 247°
2026-05-06 18:13 59.98463 10.99978 1585 ft 93 kts 233°
2026-05-06 18:13 59.98141 10.98863 1637 ft 92 kts 242°
2026-05-06 18:13 59.97792 10.97763 1661 ft 94 kts 242°
2026-05-06 18:14 59.97438 10.96674 1701 ft 93 kts 241°
2026-05-06 18:14 59.97095 10.95582 1733 ft 92 kts 244°
2026-05-06 18:14 59.96744 10.94527 1767 ft 94 kts 227°
2026-05-06 18:14 59.96115 10.94157 1864 ft 99 kts 178°
2026-05-06 18:15 59.95519 10.94853 1950 ft 104 kts 133°
2026-05-06 18:15 59.95125 10.96066 2005 ft 106 kts 123°
2026-05-06 18:15 59.94714 10.97346 2016 ft 112 kts 124°
2026-05-06 18:15 59.94424 10.98815 2028 ft 117 kts 105°
2026-05-06 18:16 59.94298 11.00433 2025 ft 119 kts 98°
2026-05-06 18:16 59.94249 11.02117 1997 ft 124 kts 91°
2026-05-06 18:16 59.94262 11.03830 1893 ft 124 kts 87°
2026-05-06 18:16 59.94500 11.05451 1607 ft 121 kts 54°
2026-05-06 18:17 59.95125 11.06435 1181 ft 114 kts
2026-05-06 18:17 59.95835 11.06623 938 ft 82 kts 336°
2026-05-06 18:17 59.96272 11.05941 616 ft 78 kts 308°
2026-05-06 18:17 59.96554 11.05143 439 ft 66 kts 304°
2026-05-06 18:18 59.96773 11.04477 359 ft 35 kts 309°
2026-05-06 18:18 59.96797 11.04403 359 ft 6 kts 125°
2026-05-06 18:18 59.96727 11.04616 361 ft 18 kts 121°
2026-05-06 18:18 59.96742 11.04789 362 ft 9 kts 84°
2026-05-06 18:19 59.96740 11.04882 362 ft 7 kts 93°
2026-05-06 18:19 59.96755 11.04907 362 ft 0 kts 335°
2026-05-06 18:19 59.96760 11.04901 362 ft 0 kts 315°